Regional Weather Roundup
Issued by NWS Huntsville, AL

Home | Current Version | Previous Version | Text Only | Print | Product List | Glossary On
Versions: 1 2 3 4 5 6 7 8 9 10 11 12 13 14 15 16 17 18 19 20 21 22 23 24 25 26 27
000
ASUS44 KHUN 232310
RWRHUN

WEATHER ROUNDUP FOR THE TENNESSEE VALLEY
NATIONAL WEATHER SERVICE HUNTSVILLE AL
500 PM CST THU FEB 23 2017

ALZ001>004-240000-
NORTHWEST ALABAMA

CITY           SKY/WX    TMP DP  RH WIND       PRES   REMARKS
COURTLAND HCN    N/A     72 N/A N/A S7          N/A
RUSSELLVILLE     N/A     70 N/A N/A MISG        N/A
SHOALS AIRPORT FAIR      73  55  53 S8        29.77S
SHOALS TVA RES   N/A     73 N/A N/A MISG        N/A
$$

ALZ005>007-016-240000-
NORTH CENTRAL ALABAMA

CITY           SKY/WX    TMP DP  RH WIND       PRES   REMARKS
CULLMAN AG STN   N/A     72 N/A N/A SE5         N/A
DECATUR AP     FAIR      70  59  68 S9        29.78S
HUNTSVILLE AP  MOCLDY    72  57  59 S7        29.78S
MERIDIANVILLE  FAIR      72  52  49 S6        29.79S
REDSTONE ARSN  FAIR      72  56  57 SW8       29.78R
VINEMONT AP    FAIR      70  55  59 S5        29.82R
$$

ALZ008>010-240000-
NORTHEAST ALABAMA

CITY           SKY/WX    TMP DP  RH WIND       PRES   REMARKS
ALBERTVILLE    MOCLDY    72  63  73 CALM      29.80S
FORT PAYNE     MOCLDY    72  50  46 SW5       29.80S
SCOTTSBORO AP  FAIR      73  55  53 S6        29.80S
SCOTTSBORO HCN   N/A     73 N/A N/A MISG        N/A
VALLEY HEAD      N/A     72 N/A N/A MISG        N/A
$$

TNZ076-096-097-240000-
SOUTHEASTERN MIDDLE TENNESSEE

CITY           SKY/WX    TMP DP  RH WIND       PRES   REMARKS
TULLAHOMA      PTCLDY    68  54  60 S7        29.80S
WINCHESTER     MOCLDY    72  55  56 S8        29.79F
$$

...SURROUNDING SITES...

CITY           SKY/WX    TMP DP  RH WIND       PRES   REMARKS
ATLANTA        FAIR      74  51  44 E8        29.83R
ANNISTON       CLOUDY    72  56  57 SE3       29.81R
BIRMINGHAM     MOCLDY    73  57  57 S7        29.82S
CHATTANOOGA    MOCLDY    74  53  48 SW8       29.80R
CORINTH        FAIR      70  57  64 S15       29.72S
DALTON         CLOUDY    72  54  53 CALM      29.81R
GADSDEN        FAIR      73  57  57 S6        29.80S
GOLDEN TRNGL   CLEAR     70  57  64 SE12      29.73S
HALEYVILLE     FAIR      69  57  65 S7        29.80F
JACKSON TN     FAIR      73  57  57 S10G21    29.69F
MEMPHIS        FAIR      75  54  47 S13       29.67F
NASHVILLE      MOCLDY    71  53  52 S10       29.75F
OXFORD MS      FAIR      73  57  56 S10       29.72S
ROME           CLOUDY    74  53  48 SE6       29.80R
SAVANNAH       CLEAR     72  57  60 S9G18     29.73R
TUPELO         FAIR      68  58  70 SE9       29.74F
TUSCALOOSA     FAIR      74  57  55 SW7       29.77S
$$

...GULF COAST WEATHER...

CITY           SKY/WX    TMP DP  RH WIND       PRES   REMARKS
GULFPORT       FAIR      70  63  78 S8        29.78R
PASCAGOULA     FAIR      69  59  70 SW5       29.79R
MOBILE         FAIR      74  59  59 S8        29.79R
GULF SHORES    FAIR      69  63  80 S6        29.79S
PENSACOLA      FAIR      70  62  76 SW8       29.78R
DESTIN         FAIR      76  68  76 SW3       29.77R
PANAMA CITY    FAIR      72  64  75 W8        29.76R
APPALACHICOLA  FAIR      74  65  73 SW6       29.75R
$$





USA.gov is the U.S. government's official web portal to all federal, state and local government web resources and services.